map of KGI home
KGI - Airport
Location
City:  Kalgoorlie, Western Australia, Australia
Name:Kalgoorlie-Boulder Airport
ICAO:YPKG
IATA:KGI

Details
Type:Airport (Aerodrome, Airfield)
Latitude:3047'22"S (-30.789443)
Longitude:12127'42"E (121.461667)
Datum:WGS 1984
Elevation:1203 ft (367 m)
Variation:0.91E (WMM2015v2 magnetic declination)
-0.01 annual change
Runways:2
Longest:6562 × 148 ft (2000 × 45 m), paved

Time
Time Zone:UTC+8
Local Time:

Weather
METAR:YPKG 041400Z AUTO 11012KT 9999 // NCD 24/08 Q1016 RF00.0/000.0
TAF:YPKG 032301Z 0400/0424 11014G25KT 9999 SCT035
FM040300 12012KT CAVOK
FM041800 10014G25KT 9999 BKN025

Related Locations
Nearby:
Farthest:BDA: 12066 mi / 19418 km
Bermuda (St. George) [L.F. Wade Intl (Bermuda Intl, Kindley Field)], BM

Find:

   beyond  
but within

Other Information
Maps:
NOTAMs:
Links:
Sources:

  
  • flag of Australia
  • flag of Western Australia
  

Sectional Chart

Flight Planning
at skyvector.com

Satellite Image

Google Maps Satellite view

 

Copyright © 2004-2019 Karl L. Swartz. All rights reserved.
The Great Circle Mapper name and logo are trademarks of the Great Circle Mapper.
All other trademarks mentioned herein belong to their respective owners.
Please see credits for attibutions and further copyright information.

  Follow gcmap on Facebook Follow gcmap on Twitter GCmap on LinkedIn

hCard Microformat

Geo Microformat